World > North America > United States > Texas > Santo  

Santo, TX Hourly Weather Updates

Feedback E-mail the Weather

Quick Clicks

Santo, TX Weather Maps

°F °C°F °C
Santo Weather Map
UTC Time: 5/22/2024, 07:48
Your Time:

Santo, TX Regional Weather

Expires:202405220800;;644982
ASUS44 KFWD 220715
RWRTX 
NORTH TEXAS HOURLY WEATHER ROUNDUP
NATIONAL WEATHER SERVICE FORT WORTH TX
200 AM CDT WED MAY 22 2024

NOTE: "FAIR" INDICATES FEW OR NO CLOUDS BELOW 12,000 FEET WITH NO
SIGNIFICANT WEATHER AND/OR OBSTRUCTIONS TO VISIBILITY.


TXZ083>090-098>101-113>116-127>130-139>142-154-155-220800-
WESTERN NORTH TEXAS
  
CITY           SKY/WX    TMP DP  RH WIND       PRES   REMARKS
WICHITA FALLS  FAIR      76  72  87 S12       29.73F FOG              
WF-KICKAPOO    FAIR      76  73  90 S12       29.76S                  
VERNON         FAIR      77  71  82 SW8       29.75S                  
ABILENE        FAIR      76  68  76 SE12      29.82S                  
ABILENE-DYESS  FAIR      76  68  77 SE10      29.77S                  
GRAHAM         FAIR      78  74  87 SE5       29.76S HAZE             
BRECKENRIDGE   FAIR      78  72  81 MISG      29.78F                  
CISCO          CLOUDY    75  72  88 S8        29.80F                  
EASTLAND       FAIR      73  68  83 SE5       29.81F                  
RANGER         HAZE      76  52  43 S9        29.81F VSB 3/4          
MINERAL WELLS  FAIR      77  73  87 SE9       29.77S FOG              
STEPHENVILLE   FAIR      77  71  82 S8        29.84S                  
COMANCHE       FAIR      75  73  91 SE8       29.82S                  
BROWNWOOD      MOCLDY    75  75 100 S7        29.82S                  
COLEMAN        FAIR      77  70  79 S10       29.83S                  
BRADY          CLOUDY    79  72  78 SE10      29.84S                  
SAN SABA       FAIR      79  73  82 S10G17    29.83F                  
$$


SKY/WX - Weather  TMP - Temperature  DP - Dew Point  RH - Humidity
WIND - Wind Direction/Speed PRES - Barometric Pressure VSB - Visibility
WCI - Wind Chill Index E13G22 Wind - East Wind 13 mph/Gusts of 22 mph

Trending Headlines

Trending Entertainment Headlines

Santo Radar Loop

Use the map search tool if you want to place a location marker on the radar map...

Santo Quick Facts

National Two Day Weather Forecast


E-mail the Santo Weather Forecast

Voice your opinion or tell us about page issues...